Date String (YYYY-MM-DD hh:mm:ss) UTC,Instrument flags,Ambient pressure (hPa),Sample flow (lpm),Bypass flow (lpm),Sample temperature (°C),Ambient temperature (°C),ASC tube jacket temperature (°C),LED temperature (°C),Box temperature (°C),Sample RH (%),Span deviation,Mass concentration (μg/m³),Mass concentration (μg/m³),Mass concentration (μg/m³)
DateTimeUTC,F1_M11,P_M11,Q1_M11,Q2_M11,T1_M11,T2_M11,T3_M11,T4_M11,T5_M11,U1_M11,ZSPAN_M11,X0_M11,X2_M11,X1_M11
2022-07-30 14:00:00,,0830.4,5.00,0.00,30.1,27.7,00.0,38.9,31.7,27.0,0000.0,0008.33,0005.34,0004.87
2022-07-30 14:01:00,,0830.4,5.00,0.00,30.0,27.8,00.0,38.9,31.7,26.9,0000.0,0008.27,0005.32,0004.86
2022-07-30 14:02:00,,0830.4,5.01,0.00,30.0,27.9,00.0,38.9,31.7,26.4,0000.0,0008.25,0005.25,0004.84
2022-07-30 14:03:00,,0830.4,5.00,0.00,30.0,28.0,00.0,38.8,31.7,26.4,0000.0,0008.33,0005.26,0004.83
2022-07-30 14:04:00,,0830.4,4.99,0.00,29.9,28.2,00.0,38.8,31.7,26.4,0000.0,0008.21,0005.22,0004.81
2022-07-30 14:05:00,,0830.4,5.00,0.00,29.9,28.3,00.0,38.8,31.7,27.5,0000.0,0008.49,0005.24,0004.81
2022-07-30 14:06:00,,0830.4,5.00,0.00,29.9,28.4,00.0,38.8,31.8,27.1,0000.0,0008.61,0005.25,0004.82
2022-07-30 14:07:00,,0830.3,5.00,0.00,29.9,28.5,00.0,38.8,31.8,28.3,0000.0,0009.19,0005.26,0004.82
2022-07-30 14:08:00,,0830.3,5.00,0.00,30.0,28.6,00.0,38.8,31.8,28.4,0000.0,0009.39,0005.26,0004.81
2022-07-30 14:09:00,,0830.3,5.01,0.00,30.0,28.6,00.0,38.8,31.9,28.3,0000.0,0009.49,0005.29,0004.81
2022-07-30 14:10:00,,0830.3,4.99,0.00,30.0,28.7,00.0,38.8,31.9,28.0,0000.0,0009.72,0005.31,0004.81
2022-07-30 14:11:00,,0830.3,5.00,0.00,30.0,28.7,00.0,38.8,31.9,28.0,0000.0,0009.76,0005.34,0004.81
2022-07-30 14:12:00,,0830.3,5.00,0.00,30.0,28.8,00.0,38.8,31.9,27.7,0000.0,0009.83,0005.38,0004.81
2022-07-30 14:13:00,,0830.3,5.00,0.00,30.0,28.8,00.0,38.8,31.9,25.9,0000.0,0009.75,0005.39,0004.82
2022-07-30 14:14:00,,0830.3,5.01,0.00,30.0,28.9,00.0,38.8,31.9,26.1,0000.0,0009.61,0005.35,0004.83
2022-07-30 14:15:00,,0830.3,5.00,0.00,30.0,28.9,00.0,38.8,32.0,26.5,0000.0,0009.80,0005.34,0004.83
2022-07-30 14:16:00,,0830.2,5.00,0.00,30.0,28.9,00.0,38.8,32.0,26.8,0000.0,0009.42,0005.30,0004.82
2022-07-30 14:17:00,,0830.2,5.00,0.00,30.0,29.0,00.0,38.8,32.0,26.9,0000.0,0009.07,0005.24,0004.80
2022-07-30 14:18:00,,0830.3,5.00,0.00,30.1,29.0,00.0,38.9,32.0,26.8,0000.0,0008.51,0005.22,0004.80
2022-07-30 14:19:00,,0830.3,4.99,0.00,30.1,29.0,00.0,38.9,32.0,26.4,0000.0,0008.34,0005.22,0004.80
2022-07-30 14:20:00,,0830.2,5.00,0.00,30.1,29.0,00.0,38.9,32.0,27.3,0000.0,0008.34,0005.22,0004.79
2022-07-30 14:21:00,,0830.2,5.00,0.00,30.1,29.1,00.0,38.9,32.0,27.1,0000.0,0008.91,0005.21,0004.79
2022-07-30 14:22:00,,0830.2,5.00,0.00,30.1,29.0,00.0,38.9,32.0,27.1,0000.0,0009.33,0005.17,0004.79
2022-07-30 14:23:00,,0830.2,4.99,0.00,30.1,28.5,00.0,38.9,31.9,26.7,0000.0,0009.70,0005.13,0004.79
2022-07-30 14:24:00,,0830.2,5.01,0.00,30.0,27.8,00.0,38.8,31.8,26.9,0000.0,0009.66,0005.11,0004.78
2022-07-30 14:25:00,,0830.2,4.99,0.00,30.0,27.5,00.0,38.8,31.7,27.7,0000.0,0009.73,0005.11,0004.78
2022-07-30 14:26:00,,0830.2,5.00,0.00,29.9,27.6,00.0,38.8,31.5,27.3,0000.0,0009.97,0005.16,0004.79
2022-07-30 14:27:00,,0830.3,5.01,0.00,29.9,27.6,00.0,38.7,31.6,28.3,0000.0,0010.22,0005.20,0004.80
2022-07-30 14:28:00,,0830.2,5.00,0.00,29.8,27.8,00.0,38.7,31.6,28.2,0000.0,0010.39,0005.23,0004.81
2022-07-30 14:29:00,,0830.2,5.00,0.00,29.8,27.9,00.0,38.7,31.6,28.6,0000.0,0010.41,0005.26,0004.81
2022-07-30 14:30:00,,0830.2,5.00,0.00,29.8,28.0,00.0,38.7,31.6,27.4,0000.0,0010.35,0005.25,0004.82
2022-07-30 14:31:00,,0830.3,5.00,0.00,29.8,28.1,00.0,38.7,31.7,28.3,0000.0,0010.31,0005.24,0004.83
2022-07-30 14:32:00,,0830.3,4.99,0.00,29.8,28.2,00.0,38.7,31.7,28.3,0000.0,0009.80,0005.24,0004.83
2022-07-30 14:33:00,,0830.3,5.01,0.00,29.8,28.3,00.0,38.6,31.7,27.5,0000.0,0009.25,0005.22,0004.82
2022-07-30 14:34:00,,0830.2,5.01,0.00,29.8,28.4,00.0,38.6,31.7,27.3,0000.0,0008.68,0005.22,0004.82
2022-07-30 14:35:00,,0830.2,4.99,0.00,29.8,28.5,00.0,38.6,31.7,28.5,0000.0,0008.69,0005.23,0004.82
2022-07-30 14:36:00,,0830.2,5.01,0.00,29.8,28.5,00.0,38.6,31.7,27.7,0000.0,0008.69,0005.25,0004.83
2022-07-30 14:37:00,,0830.3,5.01,0.00,29.8,28.6,00.0,38.6,31.8,27.4,0000.0,0008.42,0005.24,0004.83
2022-07-30 14:38:00,,0830.2,5.00,0.00,29.8,28.6,00.0,38.7,31.7,27.2,0000.0,0008.07,0005.22,0004.83
2022-07-30 14:39:00,,0830.3,5.01,0.00,29.8,28.7,00.0,38.7,31.7,26.3,0000.0,0007.95,0005.21,0004.84
2022-07-30 14:40:00,,0830.3,5.00,0.00,29.9,28.7,00.0,38.7,31.8,24.9,0000.0,0007.88,0005.17,0004.83
2022-07-30 14:41:00,,0830.2,5.00,0.00,29.9,28.7,00.0,38.7,31.8,26.1,0000.0,0007.88,0005.18,0004.83
2022-07-30 14:42:00,,0830.2,5.01,0.00,29.9,28.8,00.0,38.7,31.8,26.8,0000.0,0007.90,0005.18,0004.84
2022-07-30 14:43:00,,0830.3,4.99,0.00,29.9,28.8,00.0,38.7,31.9,26.3,0000.0,0007.82,0005.17,0004.84
2022-07-30 14:44:00,,0830.2,5.01,0.00,29.9,28.9,00.0,38.7,31.9,25.7,0000.0,0007.88,0005.20,0004.84
2022-07-30 14:45:00,,0830.2,4.99,0.00,29.9,28.9,00.0,38.7,31.9,26.8,0000.0,0007.91,0005.20,0004.85
2022-07-30 14:46:00,,0830.2,5.00,0.00,30.0,28.9,00.0,38.7,31.9,26.0,0000.0,0008.02,0005.20,0004.84
2022-07-30 14:47:00,,0830.1,5.01,0.00,30.0,28.9,00.0,38.8,31.9,26.9,0000.0,0008.18,0005.20,0004.84
2022-07-30 14:48:00,,0830.1,4.99,0.00,30.0,29.0,00.0,38.8,31.9,27.6,0000.0,0008.56,0005.21,0004.83
2022-07-30 14:49:00,,0830.1,5.01,0.00,30.0,28.5,00.0,38.7,31.9,28.0,0000.0,0008.82,0005.22,0004.83
2022-07-30 14:50:00,,0830.1,4.99,0.00,29.9,27.9,00.0,38.7,31.7,27.8,0000.0,0009.44,0005.22,0004.83
2022-07-30 14:51:00,,0830.1,4.99,0.00,29.9,27.6,00.0,38.7,31.6,27.5,0000.0,0009.60,0005.22,0004.84
2022-07-30 14:52:00,,0830.1,5.02,0.00,29.8,27.6,00.0,38.7,31.6,27.3,0000.0,0009.63,0005.23,0004.85
2022-07-30 14:53:00,,0830.1,4.99,0.00,29.8,27.7,00.0,38.6,31.5,27.7,0000.0,0009.58,0005.22,0004.84
2022-07-30 14:54:00,,0830.1,5.00,0.00,29.8,27.8,00.0,38.6,31.5,28.3,0000.0,0009.61,0005.20,0004.84
2022-07-30 14:55:00,,0830.1,5.00,0.00,29.8,27.9,00.0,38.6,31.5,28.2,0000.0,0009.67,0005.18,0004.84
2022-07-30 14:56:00,,0830.1,5.01,0.00,29.7,28.1,00.0,38.6,31.6,28.2,0000.0,0009.62,0005.18,0004.84
2022-07-30 14:57:00,,0830.1,4.99,0.00,29.7,28.2,00.0,38.6,31.6,28.0,0000.0,0009.57,0005.18,0004.84
2022-07-30 14:58:00,,0830.1,5.01,0.00,29.8,28.3,00.0,38.6,31.6,27.9,0000.0,0009.75,0005.20,0004.85
2022-07-30 14:59:00,,0830.1,5.00,0.00,29.8,28.4,00.0,38.6,31.6,28.2,0000.0,0009.76,0005.19,0004.84
